{"data":{"norad_id":57247,"intl_designator":"2023-094AF","name":"STARLINK-5039","alt_names":[],"object_type":"PAYLOAD","status":"ACTIVE","operator":null,"country":"US","launch_date":"2023-07-07","launch_site_code":"AFWTR","launch_vehicle":null,"mission":null,"orbit_class":"UNKNOWN","rcs_meters":null,"size_class":null,"mass_kg":null,"dimensions":null,"purposes":["comms"],"wikipedia_slug":null,"has_3d_model":false,"image_url":null,"decayed_at":null,"tle_current":{"epoch":"2026-05-24T19:06:47.563776Z","epoch_age_seconds":88783,"freshness":"FRESH","line1":"1 57247U 23094AF  26144.79638384  .00000674  00000+0  34023-4 0  9990","line2":"2 57247  43.0030 309.7214 0001679 265.1311  94.9349 15.27576034158883","mean_motion":15.27576034,"eccentricity":0.0001679,"inclination_deg":43.003,"raan_deg":309.7214,"arg_perigee_deg":265.1311,"mean_anomaly_deg":94.9349,"bstar":3.4023e-5,"rev_number":15888,"period_min":94.266993455594,"perigee_km":481.90897655666,"apogee_km":484.21296683556,"semimajor_km":6861.1979716961,"source":"CELESTRAK","updated_at":"2026-05-25T13:38:18.258145Z"}}}